Location: Altenst�hlen
(53.5567°N, 8.9425°E)
Time: 14:49:23
(UTC+00:00)

Cosmos 858 Rocket - Pass Details

Date: 23 October 2019
Orbit: 756 x 774 km, 74.1° (Epoch: 19 November)

Event Time Altitude Azimuth Distance (km) Brightness Sun altitude
Rises 18:16:28 0° 333° (NNW) 3,227 8.2 -19.3°
Reaches altitude 10° 18:18:51 10° 332° (NNW) 2,298 7.4 -19.6°
Maximum altitude 18:24:04 81° 246° (WSW) 775 4.5 -20.4°
Enters shadow 18:27:44 20° 161° (SSE) 1,712 6.0 -20.9°
